Weather History for Marshfield, WI

Change the Weather History Date:

Saturday, October 8, 2011

  Actual Average Record
Temperature  
Mean Temperature 70 °F -  
Max Temperature 80 °F 61 °F 81 °F (1997)
Min Temperature 60 °F 39 °F 20 °F (1976)
Cooling Degree Days 5    
Growing Degree Days 20 (Base 50)    
Moisture  
Dew Point 52 °F    
Average Humidity 55    
Maximum Humidity 72    
Minimum Humidity 38    
Precipitation  
Precipitation 0.00 in - - ()
Sea Level Pressure  
Sea Level Pressure 30.16 in    
Wind  
Wind Speed 10 mph (South)    
Max Wind Speed 17 mph    
Max Gust Speed 25 mph    
Visibility 10 miles    
Events      
Averages and records for this station are not official NWS values.
T = Trace of Precipitation, MM = Missing Value Source: NWS Daily Summary

Daily Weather History Graph

Daily Weather History Graph

Search for Another Location

Airport:

Trip Planner

Search our weather history database for the weather conditions in past years. The results will help you decide how hot, cold, wet, or windy it might be!

Date:

Astronomy

Oct. 08, 2011 Rise Set
Actual Time 7:06 AM CDT 6:29 PM CDT
Civil Twilight 6:37 AM CDT 6:58 PM CDT
Nautical Twilight 6:03 AM CDT 7:31 PM CDT
Astronomical Twilight 5:29 AM CDT 8:05 PM CDT
Moon 4:44 PM CDT (10/8) 3:47 AM CDT (10/8)
Length of Visible Light 12h 20m
Length of Day
11h 22m
Waxing Gibbous, 90% of the Moon is Illuminated
Oct 8
Waxing Gibbous
Oct 11
Full
Oct 19
Last Quarter
Oct 26
New
Nov 2
First Quarter

Hourly Weather History & Observations

Time (CDT) Temp. Heat Index Dew Point Humidity Pressure Visibility Wind Dir Wind Speed Gust Speed Precip Events Conditions
12:54 AM 64.0 °F - 46.0 °F 52% 30.09 in 10.0 mi South 10.4 mph - N/A   Clear
1:54 AM 64.9 °F - 46.9 °F 52% 30.09 in 10.0 mi South 10.4 mph - N/A   Clear
2:54 AM 61.0 °F - 48.0 °F 62% 30.11 in 10.0 mi South 5.8 mph - N/A   Clear
3:54 AM 64.0 °F - 48.9 °F 58% 30.13 in 10.0 mi South 8.1 mph - N/A   Clear
4:54 AM 61.0 °F - 50.0 °F 67% 30.13 in 10.0 mi South 8.1 mph - N/A   Clear
5:54 AM 61.0 °F - 50.0 °F 67% 30.15 in 10.0 mi South 6.9 mph - N/A   Clear
6:54 AM 60.1 °F - 50.0 °F 69% 30.17 in 10.0 mi South 8.1 mph - N/A   Clear
7:54 AM 60.1 °F - 51.1 °F 72% 30.17 in 10.0 mi South 5.8 mph - N/A   Clear
8:54 AM 64.9 °F - 52.0 °F 63% 30.18 in 10.0 mi South 10.4 mph - N/A   Clear
9:54 AM 69.1 °F - 53.1 °F 57% 30.19 in 10.0 mi SSW 13.8 mph 19.6 mph N/A   Clear
10:54 AM 73.0 °F - 54.0 °F 51% 30.18 in 10.0 mi SSW 15.0 mph 25.3 mph N/A   Clear
11:54 AM 75.9 °F - 55.0 °F 48% 30.17 in 10.0 mi SSW 15.0 mph 21.9 mph N/A   Clear
12:54 PM 78.1 °F - 55.9 °F 46% 30.17 in 10.0 mi South 11.5 mph 21.9 mph N/A   Clear
1:54 PM 79.0 °F - 55.0 °F 44% 30.15 in 10.0 mi SSW 12.7 mph 23.0 mph N/A   Clear
2:54 PM 80.1 °F 80.0 °F 54.0 °F 40% 30.15 in 10.0 mi SSW 17.3 mph 20.7 mph N/A   Clear
3:54 PM 80.1 °F - 52.0 °F 38% 30.14 in 10.0 mi South 15.0 mph 25.3 mph N/A   Clear
4:54 PM 78.1 °F - 51.1 °F 39% 30.14 in 10.0 mi South 13.8 mph 19.6 mph N/A   Clear
5:54 PM 75.9 °F - 52.0 °F 43% 30.15 in 10.0 mi SSW 11.5 mph 19.6 mph N/A   Clear
6:54 PM 72.0 °F - 52.0 °F 49% 30.16 in 10.0 mi South 8.1 mph - N/A   Clear
7:54 PM 66.0 °F - 52.0 °F 60% 30.17 in 10.0 mi South 8.1 mph - N/A   Clear
8:54 PM 66.0 °F - 52.0 °F 60% 30.18 in 10.0 mi South 6.9 mph - N/A   Clear
9:54 PM 64.9 °F - 52.0 °F 63% 30.20 in 10.0 mi South 6.9 mph - N/A   Clear
10:54 PM 66.0 °F - 52.0 °F 60% 30.20 in 10.0 mi South 6.9 mph - N/A   Clear
11:54 PM 61.0 °F - 51.1 °F 70% 30.21 in 10.0 mi South 6.9 mph - N/A   Clear